THOR ABLESTAR DEB, 152

Orbit data source: Space-Track

THOR ABLESTAR DEB, 152 is space debris in LEO originally from a launch on Thu, 29 Jun 1961 UTC launched from the Air Force Eastern Test Range (AFETR). Debris objects in space refer to the collection of defunct objects orbiting the Earth. Examples of debris include non-operational satellites, rocket bodies, and fragments generated from explosions, collisions, or faulty payload assembly.

Loading next visibility...
Identifier
152, 1961-015AN
Orbit
LEO
Last TLE update
10 hours ago
Origin
Manufacturer
Unknown
Mission
Spacecraft
Bus & Motor
Unknown
Mass
Unknown
Launch date (UTC)
1961-06-29 (64 years ago)
Launch vehicle
Unknown
Launch site
Air Force Eastern Test Range (AFETR)
Object type
Payload
Rocket body
Debris
Shape & HBR
Unknown
Radar Cross Section
Medium (>0.1 m² and <1 m²)

Expand to show TLE details & history

TLE from 10 hours ago
0 THOR ABLESTAR DEB
1 00152U 61015AN  25189.86482200  .00000041  00000-0  62264-4 0  9995
2 00152  66.5937 114.5077 0143043  68.9115 292.7198 14.11163455277630
Epoch: 2025-07-08T20:45Z
TLE epoch observation values (Epoch: 2025-07-08T20:45:20.62Z)
Latitude
-0.00003°
Longitude
-123.88191°
Altitude
818.776 km
Speed
7.464 km/s
True Right ascension
07h 38m 01s
True Declination
0° 00' 00"
Sunlit
Object was in daylight at epoch
Visualization orbit readout
Latitude
13.89294°
Longitude
-118.85892°
Altitude
794.143 km
Speed
7.49 km/s
Apparent Right ascension
07h 38m 48s
Apparent Declination
-11° 18' 05"
Sunlit
Object is in daylight
Visualization observer readout
Local Sidereal Time
19:11:19
Azimuth
346.11° N
Elevation
-60.746°
Doppler factor
1
Orbital elements
Apogee altitude
957.242 km
Perigee altitude
750.347 km
Semi-major axis
7,231.931 km
Eccentricity
0.0143
Inclination
66.5937°
RAAN
114.5077°
Arg. of periapsis
68.9115°
True anomaly
Unknown
Mean anomaly
292.7198°
Eccentric anomaly
Unknown
Mean motion
3.52908 °/min
Orbital period
102.01 mins
BSTAR
0.000062264
Loading maneuver chart data...
Loading SW <> Apogee altitude chart data...

THOR ABLESTAR DEB Visibility forecast

Observer location: undefined°, undefined°

Span
Click to sort rows by Start time (UTC) header in descending order
Start Az.
Max El. time (UTC)
Max El. Az.
Max El.
End time (UTC)
End Az.
4 mins2025-07-09 07:34:53.978Z281.355° WNW2025-07-09 07:36:53.978Z259.415° W12.909°2025-07-09 07:38:53.978Z236.798° WSW
8 mins2025-07-09 20:42:53.978Z212.915° SW2025-07-09 20:46:53.978Z349.306° N44.208°2025-07-09 20:50:53.978Z26.765° NE
4 mins2025-07-10 03:54:53.978Z25.182° NE2025-07-10 03:55:53.978Z37.462° NE14.016°2025-07-10 03:58:53.978Z72.225° E
9 mins2025-07-10 05:37:53.978Z332.981° NNW2025-07-10 05:41:53.978Z64.985° ENE44.832°2025-07-10 05:46:53.978Z149.355° SSE
|